Time,TemperatureF,DewpointF,PressureIn,WindDirection,WindDirectionDegrees,WindSpeedMPH,WindSpeedGustMPH,Humidity,HourlyPrecipIn,Conditions,Clouds,dailyrainin,SoftwareType,DateUTC
2013-07-29 00:03:00,55.6,29.0,30.12,NE,45,1.0,1.0,36,0.00,CLR,CLR,0.00,WeatherDisplay:10.37,2013-07-29 04:03:00,
2013-07-29 00:18:00,55.6,29.0,30.12,NE,45,0.0,1.0,36,0.00,CLR,CLR,0.00,WeatherDisplay:10.37,2013-07-29 04:18:00,
2013-07-29 00:33:00,55.0,29.2,30.12,NE,45,0.0,0.0,37,0.00,CLR,CLR,0.00,WeatherDisplay:10.37,2013-07-29 04:33:00,
2013-07-29 00:48:00,54.9,29.1,30.12,NE,45,0.0,0.0,37,0.00,CLR,CLR,0.00,WeatherDisplay:10.37,2013-07-29 04:48:00,
2013-07-29 01:03:00,54.9,29.7,30.12,NE,45,0.0,0.0,38,0.00,CLR,CLR,0.00,WeatherDisplay:10.37,2013-07-29 05:03:00,
2013-07-29 01:18:00,54.9,29.7,30.12,NE,45,0.0,0.0,38,0.00,CLR,CLR,0.00,WeatherDisplay:10.37,2013-07-29 05:18:00,
2013-07-29 01:33:00,55.2,30.7,30.12,NE,45,0.0,2.0,39,0.00,CLR,CLR,0.00,WeatherDisplay:10.37,2013-07-29 05:33:00,
2013-07-29 01:48:00,54.5,30.6,30.12,NE,45,0.0,0.0,40,0.00,CLR,CLR,0.00,WeatherDisplay:10.37,2013-07-29 05:48:00,
2013-07-29 02:03:00,54.0,32.0,30.12,NNE,23,0.0,0.0,43,0.00,CLR,CLR,0.00,WeatherDisplay:10.37,2013-07-29 06:03:00,
2013-07-29 02:18:00,54.1,31.5,30.12,NW,315,0.0,0.0,42,0.00,CLR,CLR,0.00,WeatherDisplay:10.37,2013-07-29 06:18:00,
2013-07-29 02:33:00,54.5,31.3,30.15,NW,315,0.0,0.0,41,0.00,CLR,CLR,0.00,WeatherDisplay:10.37,2013-07-29 06:33:00,
2013-07-29 02:48:00,55.0,31.1,30.15,NW,315,0.0,0.0,40,0.00,CLR,CLR,0.00,WeatherDisplay:10.37,2013-07-29 06:48:00,
2013-07-29 03:03:00,55.6,31.0,30.15,NW,315,0.0,0.0,39,0.00,CLR,CLR,0.00,WeatherDisplay:10.37,2013-07-29 07:03:00,
2013-07-29 03:18:00,56.5,31.8,30.15,NW,315,0.0,0.0,39,0.00,CLR,CLR,0.00,WeatherDisplay:10.37,2013-07-29 07:18:00,
2013-07-29 03:33:00,57.6,32.1,30.15,SSW,207,1.0,2.0,38,0.00,CLR,CLR,0.00,WeatherDisplay:10.37,2013-07-29 07:33:00,
2013-07-29 03:48:00,59.0,33.4,30.15,SSE,168,1.0,2.0,38,0.00,CLR,CLR,0.00,WeatherDisplay:10.37,2013-07-29 07:48:00,
2013-07-29 04:03:00,60.6,35.5,30.18,SSW,197,2.0,3.0,39,0.00,CLR,CLR,0.00,WeatherDisplay:10.37,2013-07-29 08:03:00,
2013-07-29 04:18:00,63.1,34.3,30.18,SSW,196,2.0,4.0,34,0.00,CLR,CLR,0.00,WeatherDisplay:10.37,2013-07-29 08:18:00,
2013-07-29 04:33:00,64.8,27.1,30.18,SSW,202,3.0,4.0,24,0.00,CLR,CLR,0.00,WeatherDisplay:10.37,2013-07-29 08:33:00,
2013-07-29 04:48:00,66.0,23.8,30.18,SSW,201,2.0,5.0,20,0.00,CLR,CLR,0.00,WeatherDisplay:10.37,2013-07-29 08:48:00,
2013-07-29 05:03:00,67.5,24.9,30.18,South,189,3.0,4.0,20,0.00,CLR,CLR,0.00,WeatherDisplay:10.37,2013-07-29 09:03:00,
2013-07-29 05:18:00,69.4,22.7,30.18,SSW,204,5.0,6.0,17,0.00,CLR,CLR,0.00,WeatherDisplay:10.37,2013-07-29 09:18:00,
2013-07-29 05:33:00,71.6,23.0,30.18,SSW,204,3.0,4.0,16,0.00,CLR,CLR,0.00,WeatherDisplay:10.37,2013-07-29 09:33:00,
2013-07-29 05:48:00,72.5,23.7,30.18,SSW,204,3.0,6.0,16,0.00,CLR,CLR,0.00,WeatherDisplay:10.37,2013-07-29 09:48:00,
2013-07-29 06:03:00,75.2,24.3,30.18,South,185,2.0,7.0,15,0.00,CLR,CLR,0.00,WeatherDisplay:10.37,2013-07-29 10:03:00,
2013-07-29 06:18:00,75.4,24.5,30.18,SW,225,3.0,6.0,15,0.00,CLR,CLR,0.00,WeatherDisplay:10.37,2013-07-29 10:18:00,
2013-07-29 06:33:00,75.9,24.9,30.15,SW,218,3.0,6.0,15,0.00,CLR,CLR,0.00,WeatherDisplay:10.37,2013-07-29 10:33:00,
2013-07-29 06:48:00,76.8,25.6,30.18,WSW,248,3.0,6.0,15,0.00,CLR,CLR,0.00,WeatherDisplay:10.37,2013-07-29 10:48:00,
2013-07-29 07:03:00,78.1,26.6,30.18,WSW,248,3.0,6.0,15,0.00,CLR,CLR,0.00,WeatherDisplay:10.37,2013-07-29 11:03:00,
2013-07-29 07:18:00,77.9,26.5,30.18,SSW,210,5.0,6.0,15,0.00,CLR,CLR,0.00,WeatherDisplay:10.37,2013-07-29 11:18:00,
2013-07-29 07:33:00,80.4,28.5,30.18,WSW,248,3.0,6.0,15,0.00,CLR,CLR,0.00,WeatherDisplay:10.37,2013-07-29 11:33:00,
2013-07-29 07:48:00,81.3,27.5,30.18,SW,227,3.0,5.0,14,0.00,CLR,CLR,0.00,WeatherDisplay:10.37,2013-07-29 11:48:00,
2013-07-29 08:03:00,82.9,28.8,30.18,WNW,295,2.0,6.0,14,0.00,CLR,CLR,0.00,WeatherDisplay:10.37,2013-07-29 12:03:00,
2013-07-29 08:18:00,84.0,29.7,30.18,WSW,251,2.0,4.0,14,0.00,CLR,CLR,0.00,WeatherDisplay:10.37,2013-07-29 12:18:00,
2013-07-29 08:33:00,81.1,27.4,30.18,WSW,255,5.0,6.0,14,0.00,CLR,CLR,0.00,WeatherDisplay:10.37,2013-07-29 12:33:00,
2013-07-29 08:48:00,80.2,28.4,30.18,SW,232,5.0,6.0,15,0.00,CLR,CLR,0.00,WeatherDisplay:10.37,2013-07-29 12:48:00,
2013-07-29 09:03:00,81.7,27.8,30.18,WSW,257,6.0,6.0,14,0.00,CLR,CLR,0.00,WeatherDisplay:10.37,2013-07-29 13:03:00,
2013-07-29 09:18:00,82.8,28.7,30.18,WNW,299,3.0,4.0,14,0.00,CLR,CLR,0.00,WeatherDisplay:10.37,2013-07-29 13:18:00,
2013-07-29 09:33:00,82.6,28.5,30.18,SW,235,3.0,6.0,14,0.00,CLR,CLR,0.00,WeatherDisplay:10.37,2013-07-29 13:33:00,
2013-07-29 09:48:00,84.6,28.3,30.18,SSW,202,2.0,6.0,13,0.00,CLR,CLR,0.00,WeatherDisplay:10.37,2013-07-29 13:48:00,
2013-07-29 10:03:00,82.6,28.5,30.18,WSW,242,3.0,6.0,14,0.00,CLR,CLR,0.00,WeatherDisplay:10.37,2013-07-29 14:03:00,
2013-07-29 10:18:00,84.2,28.0,30.18,WSW,240,2.0,4.0,13,0.00,CLR,CLR,0.00,WeatherDisplay:10.37,2013-07-29 14:18:00,
2013-07-29 10:33:00,83.8,29.5,30.15,West,263,2.0,5.0,14,0.00,CLR,CLR,0.00,WeatherDisplay:10.37,2013-07-29 14:33:00,
2013-07-29 10:48:00,84.2,28.0,30.15,SW,229,3.0,6.0,13,0.00,CLR,CLR,0.00,WeatherDisplay:10.37,2013-07-29 14:48:00,
2013-07-29 11:03:00,83.5,29.2,30.15,West,260,2.0,6.0,14,0.00,CLR,CLR,0.00,WeatherDisplay:10.37,2013-07-29 15:03:00,
2013-07-29 11:18:00,80.4,28.5,30.18,West,262,1.0,6.0,15,0.00,CLR,CLR,0.00,WeatherDisplay:10.37,2013-07-29 15:18:00,
2013-07-29 11:33:00,81.3,27.5,30.15,SW,231,3.0,6.0,14,0.00,CLR,CLR,0.00,WeatherDisplay:10.37,2013-07-29 15:33:00,
2013-07-29 11:48:00,79.7,27.9,30.15,WSW,238,2.0,4.0,15,0.00,CLR,CLR,0.00,WeatherDisplay:10.37,2013-07-29 15:48:00,
2013-07-29 12:03:00,81.3,27.5,30.15,SW,232,3.0,6.0,14,0.00,CLR,CLR,0.00,WeatherDisplay:10.37,2013-07-29 16:03:00,
2013-07-29 12:18:00,79.9,28.1,30.15,SW,229,2.0,5.0,15,0.00,CLR,CLR,0.00,WeatherDisplay:10.37,2013-07-29 16:18:00,
2013-07-29 12:33:00,79.3,27.6,30.15,SW,227,3.0,4.0,15,0.00,CLR,CLR,0.00,WeatherDisplay:10.37,2013-07-29 16:33:00,
2013-07-29 12:48:00,79.7,27.9,30.15,WSW,237,1.0,4.0,15,0.00,CLR,CLR,0.00,WeatherDisplay:10.37,2013-07-29 16:48:00,
2013-07-29 13:03:00,79.9,28.1,30.15,WSW,251,3.0,4.0,15,0.00,CLR,CLR,0.00,WeatherDisplay:10.37,2013-07-29 17:03:00,
2013-07-29 13:18:00,78.8,27.2,30.15,WSW,239,3.0,6.0,15,0.00,CLR,CLR,0.00,WeatherDisplay:10.37,2013-07-29 17:18:00,
2013-07-29 13:33:00,77.5,26.2,30.18,WSW,237,2.0,4.0,15,0.00,CLR,CLR,0.00,WeatherDisplay:10.37,2013-07-29 17:33:00,
2013-07-29 13:48:00,76.6,25.5,30.18,WSW,252,2.0,4.0,15,0.00,CLR,CLR,0.00,WeatherDisplay:10.37,2013-07-29 17:48:00,
2013-07-29 14:03:00,76.6,25.5,30.18,WSW,245,1.0,3.0,15,0.00,CLR,CLR,0.00,WeatherDisplay:10.37,2013-07-29 18:03:00,
2013-07-29 14:18:00,76.1,25.1,30.18,WSW,245,3.0,3.0,15,0.00,CLR,CLR,0.00,WeatherDisplay:10.37,2013-07-29 18:18:00,
2013-07-29 14:33:00,75.4,24.5,30.18,WSW,251,3.0,4.0,15,0.00,CLR,CLR,0.00,WeatherDisplay:10.37,2013-07-29 18:33:00,
2013-07-29 14:48:00,75.2,20.9,30.18,SW,233,2.0,4.0,13,0.00,CLR,CLR,0.00,WeatherDisplay:10.37,2013-07-29 18:48:00,
2013-07-29 15:03:00,73.8,19.8,30.18,SW,236,1.0,3.0,13,0.00,CLR,CLR,0.00,WeatherDisplay:10.37,2013-07-29 19:03:00,
2013-07-29 15:18:00,73.4,19.5,30.18,SW,229,0.0,1.0,13,0.00,CLR,CLR,0.00,WeatherDisplay:10.37,2013-07-29 19:18:00,
2013-07-29 15:33:00,72.5,20.5,30.18,West,270,0.0,1.0,14,0.00,CLR,CLR,0.00,WeatherDisplay:10.37,2013-07-29 19:33:00,
2013-07-29 15:48:00,71.4,19.7,30.18,NNE,22,0.0,1.0,14,0.00,CLR,CLR,0.00,WeatherDisplay:10.37,2013-07-29 19:48:00,
2013-07-29 16:03:00,70.3,18.8,30.18,NNE,22,0.0,0.0,14,0.00,CLR,CLR,0.00,WeatherDisplay:10.37,2013-07-29 20:03:00,
2013-07-29 16:18:00,69.3,19.6,30.18,NNE,22,0.0,0.0,15,0.00,CLR,CLR,0.00,WeatherDisplay:10.37,2013-07-29 20:18:00,
2013-07-29 16:33:00,68.5,19.0,30.18,North,9,1.0,1.0,15,0.00,CLR,CLR,0.00,WeatherDisplay:10.37,2013-07-29 20:33:00,
2013-07-29 16:48:00,68.0,21.5,30.18,North,0,0.0,0.0,17,0.00,CLR,CLR,0.00,WeatherDisplay:10.37,2013-07-29 20:48:00,
2013-07-29 17:03:00,67.5,21.1,30.18,North,0,0.0,0.0,17,0.00,CLR,CLR,0.00,WeatherDisplay:10.37,2013-07-29 21:03:00,
2013-07-29 17:18:00,66.9,20.6,30.18,North,0,0.0,0.0,17,0.00,CLR,CLR,0.00,WeatherDisplay:10.37,2013-07-29 21:18:00,
2013-07-29 17:33:00,66.4,20.2,30.18,North,0,0.0,0.0,17,0.00,CLR,CLR,0.00,WeatherDisplay:10.37,2013-07-29 21:33:00,
2013-07-29 17:48:00,66.0,21.2,30.18,North,4,1.0,2.0,18,0.00,CLR,CLR,0.00,WeatherDisplay:10.37,2013-07-29 21:48:00,
2013-07-29 18:03:00,66.0,27.1,30.18,NNE,28,1.0,2.0,23,0.00,CLR,CLR,0.00,WeatherDisplay:10.37,2013-07-29 22:03:00,
2013-07-29 18:18:00,66.0,27.1,30.18,NNE,29,1.0,2.0,23,0.00,CLR,CLR,0.00,WeatherDisplay:10.37,2013-07-29 22:18:00,
2013-07-29 18:33:00,66.0,27.1,30.18,NE,40,0.0,2.0,23,0.00,CLR,CLR,0.00,WeatherDisplay:10.37,2013-07-29 22:33:00,
2013-07-29 18:48:00,64.9,26.2,30.18,NNE,22,0.0,0.0,23,0.00,CLR,CLR,0.00,WeatherDisplay:10.37,2013-07-29 22:48:00,
2013-07-29 19:03:00,63.9,26.3,30.18,NNE,22,0.0,0.0,24,0.00,CLR,CLR,0.00,WeatherDisplay:10.37,2013-07-29 23:03:00,
2013-07-29 19:18:00,63.9,27.3,30.21,NE,40,0.0,2.0,25,0.00,CLR,CLR,0.00,WeatherDisplay:10.37,2013-07-29 23:18:00,
2013-07-29 19:33:00,63.5,27.0,30.21,NE,45,0.0,0.0,25,0.00,CLR,CLR,0.00,WeatherDisplay:10.37,2013-07-29 23:33:00,
2013-07-29 19:48:00,63.5,28.0,30.21,NE,45,0.0,0.0,26,0.00,CLR,CLR,0.00,WeatherDisplay:10.37,2013-07-29 23:48:00,
2013-07-29 20:03:00,63.5,30.6,30.24,NE,36,0.0,0.0,29,0.00,CLR,CLR,0.00,WeatherDisplay:10.37,2013-07-30 00:03:00,
2013-07-29 20:18:00,63.3,31.3,30.24,NNE,24,0.0,0.0,30,0.00,CLR,CLR,0.00,WeatherDisplay:10.37,2013-07-30 00:18:00,
2013-07-29 20:33:00,63.1,32.0,30.21,NE,45,0.0,0.0,31,0.00,CLR,CLR,0.00,WeatherDisplay:10.37,2013-07-30 00:33:00,
2013-07-29 20:48:00,62.8,34.0,30.18,NE,45,1.0,1.0,34,0.00,CLR,CLR,0.00,WeatherDisplay:10.37,2013-07-30 00:48:00,
2013-07-29 21:03:00,62.4,33.7,30.18,NE,38,0.0,0.0,34,0.00,CLR,CLR,0.00,WeatherDisplay:10.37,2013-07-30 01:03:00,
2013-07-29 21:18:00,62.4,34.4,30.15,NNE,27,0.0,0.0,35,0.00,CLR,CLR,0.00,WeatherDisplay:10.37,2013-07-30 01:18:00,
2013-07-29 21:33:00,62.2,34.2,30.18,NNE,29,0.0,0.0,35,0.00,CLR,CLR,0.00,WeatherDisplay:10.37,2013-07-30 01:33:00,
2013-07-29 21:48:00,62.2,35.6,30.18,NNE,15,0.0,0.0,37,0.00,CLR,CLR,0.00,WeatherDisplay:10.37,2013-07-30 01:48:00,
2013-07-29 22:03:00,62.2,34.2,30.18,North,0,0.0,0.0,35,0.00,CLR,CLR,0.00,WeatherDisplay:10.37,2013-07-30 02:03:00,
2013-07-29 22:18:00,61.9,34.6,30.18,North,0,0.0,0.0,36,0.00,CLR,CLR,0.00,WeatherDisplay:10.37,2013-07-30 02:18:00,
2013-07-29 22:33:00,61.5,34.3,30.18,North,0,0.0,0.0,36,0.00,CLR,CLR,0.00,WeatherDisplay:10.37,2013-07-30 02:33:00,
2013-07-29 22:48:00,61.7,35.8,30.18,North,7,0.0,0.0,38,0.00,CLR,CLR,0.00,WeatherDisplay:10.37,2013-07-30 02:48:00,
2013-07-29 23:03:00,61.9,36.0,30.18,NNE,22,0.0,0.0,38,0.00,CLR,CLR,0.00,WeatherDisplay:10.37,2013-07-30 03:03:00,
2013-07-29 23:18:00,62.1,36.1,30.18,NNE,22,0.0,0.0,38,0.00,CLR,CLR,0.00,WeatherDisplay:10.37,2013-07-30 03:18:00,
2013-07-29 23:33:00,62.1,35.5,30.18,NNE,22,0.0,0.0,37,0.00,CLR,CLR,0.00,WeatherDisplay:10.37,2013-07-30 03:33:00,
2013-07-29 23:48:00,62.2,36.3,30.18,NNE,22,0.0,0.0,38,0.00,CLR,CLR,0.00,WeatherDisplay:10.37,2013-07-30 03:48:00,